Location: Gallinara
(44.0333°N, 8.2333°E)
Time: 06:14:11
(UTC+00:00)

Cosmos 2237 - Pass Details

Date: 25 September 2020
Orbit: 849 x 853 km, 70.8° (Epoch: 23 October)

Event Time Altitude Azimuth Distance (km) Brightness Sun altitude
Exits shadow 03:13:44 26° 187° (S) 1,629 5.4 -22.6°
Maximum altitude 03:17:01 68° 111° (ESE) 918 4.5 -22.1°
Drops below altitude 10° 03:22:41 10° 30° (NNE) 2,486 7.3 -21.1°
Sets 03:25:09 0° 28° (NNE) 3,425 8.1 -20.7°
